FW2343 Weather Reports


Display with metric or nautical units.
time (UTC)temp
F
wind
direction
speed
MPH
gust
MPH
rain 1hr
in
rain 24hr
in
rain mn
in
humidity
%
barometer
mb
20260904105705 92 33 1.0 10.0 0.00 0.00 0.00 30 1019.2
20260904105217 92 338 3.0 6.0 0.00 0.00 0.00 29 1019.4
20260904104717 92 0 0.0 6.0 0.00 0.00 0.00 29 1019.5
20260904104206 91 80 1.0 6.0 0.00 0.00 0.00 30 1019.4
20260904103706 91 30 2.0 6.0 0.00 0.00 0.00 29 1019.5
20260904103208 90 74 0.0 6.0 0.00 0.00 0.00 30 1019.6
20260904102708 90 21 1.0 6.0 0.00 0.00 0.00 30 1019.7
20260904102205 89 21 1.0 4.0 0.00 0.00 0.00 31 1019.8
20260904101715 89 4 0.0 9.0 0.00 0.00 0.00 31 1019.8
20260904101213 89 125 1.0 9.0 0.00 0.00 0.00 31 1019.9
20260904100716 89 104 1.0 9.0 0.00 0.00 0.00 31 1020.0
20260904100242 89 292 1.0 6.0 0.00 0.00 0.00 32 1020.0
20260904095714 89 184 0.0 6.0 0.00 0.00 0.00 31 1020.1
20260904095218 89 75 1.0 6.0 0.00 0.00 0.00 32 1020.1
20260904094710 88 91 1.0 6.0 0.00 0.00 0.00 33 1020.2
20260904094206 87 63 2.0 6.0 0.00 0.00 0.00 34 1020.2
20260904093709 87 9 2.0 3.0 0.00 0.00 0.00 35 1020.2
20260904093209 86 63 1.0 2.0 0.00 0.00 0.00 36 1020.3
20260904092707 86 338 0.0 1.0 0.00 0.00 0.00 36 1020.3
20260904092218 85 11 0.0 2.0 0.00 0.00 0.00 38 1020.4
20260904091711 85 0 0.0 2.0 0.00 0.00 0.00 38 1020.4
20260904091243 85 39 0.0 2.0 0.00 0.00 0.00 39 1020.4
20260904090715 84 160 0.0 1.0 0.00 0.00 0.00 38 1020.4
20260904085706 83 357 0.0 0.0 0.00 0.00 0.00 40 1020.4
20260904085206 82 0 0.0 0.0 0.00 0.00 0.00 40 1020.4
20260904084718 81 0 0.0 0.0 0.00 0.00 0.00 41 1020.4
20260904084217 81 0 0.0 0.0 0.00 0.00 0.00 42 1020.4
20260904083709 80 0 0.0 0.0 0.00 0.00 0.00 43 1020.4
20260904082718 78 0 0.0 0.0 0.00 0.00 0.00 45 1020.4
20260904082217 78 0 0.0 2.0 0.00 0.00 0.00 46 1020.3
20260904081709 77 0 0.0 2.0 0.00 0.00 0.00 47 1020.5
20260904081209 77 0 0.0 2.0 0.00 0.00 0.00 47 1020.5
20260904080709 76 158 0.0 2.0 0.00 0.00 0.00 49 1020.4
20260904080207 75 0 0.0 3.0 0.00 0.00 0.00 49 1020.5
20260904075206 74 195 0.0 3.0 0.00 0.00 0.00 52 1020.5
20260904074707 73 219 1.0 2.0 0.00 0.00 0.00 53 1020.6
20260904074219 72 274 0.0 2.0 0.00 0.00 0.00 54 1020.6
20260904072706 70 212 0.0 0.0 0.00 0.00 0.00 58 1020.6
20260904071705 69 0 0.0 0.0 0.00 0.00 0.00 60 1020.5
20260904071214 68 0 0.0 2.0 0.00 0.00 0.00 61 1020.6
20260904070219 67 0 0.0 2.0 0.00 0.00 0.00 63 1020.6
20260904065706 66 354 1.0 1.0 0.00 0.00 0.00 64 1020.6
20260904065219 66 0 0.0 1.0 0.00 0.00 0.00 65 1020.6
20260904064217 64 19 0.0 2.0 0.00 0.00 0.00 67 1020.6
20260904063706 64 0 0.0 2.0 0.00 0.00 0.00 67 1020.6
20260904063211 64 28 0.0 2.0 0.00 0.00 0.00 67 1020.6
20260904062217 63 19 0.0 0.0 0.00 0.00 0.00 68 1020.5
20260904061715 63 0 0.0 1.0 0.00 0.00 0.00 68 1020.6
20260904061218 63 0 0.0 1.0 0.00 0.00 0.00 68 1020.6
20260904060712 63 0 0.0 1.0 0.00 0.00 0.00 68 1020.5
20260904055705 64 67 0.0 3.0 0.00 0.00 0.00 67 1020.4
20260904055212 64 0 0.0 3.0 0.00 0.00 0.00 67 1020.2
20260904054711 63 254 1.0 3.0 0.00 0.00 0.00 67 1020.2
20260904054206 63 255 2.0 3.0 0.00 0.00 0.00 66 1020.1
20260904053707 64 246 2.0 5.0 0.00 0.00 0.00 66 1020.1
20260904053209 64 261 2.0 5.0 0.00 0.00 0.00 66 1020.1
20260904052708 63 230 2.0 5.0 0.00 0.00 0.00 66 1020.1
20260904052217 63 254 3.0 4.0 0.00 0.00 0.00 67 1020.1
20260904051717 63 258 2.0 4.0 0.00 0.00 0.00 68 1020.1
20260904051236 63 247 2.0 3.0 0.00 0.00 0.00 68 1020.1
20260904050714 62 251 1.0 0.0 0.00 0.00 0.00 69 1020.0
20260904045718 62 0 0.0 0.0 0.00 0.00 0.00 70 1020.1
20260904045213 62 0 0.0 0.0 0.00 0.00 0.00 70 1020.1
20260904044209 62 0 0.0 0.0 0.00 0.00 0.00 68 1020.2
20260904043716 63 0 0.0 0.0 0.00 0.00 0.00 68 1020.2
20260904042208 64 0 0.0 2.0 0.00 0.00 0.00 66 1020.3
20260904041709 64 205 0.0 3.0 0.00 0.00 0.00 66 1020.3
20260904041232 64 230 0.0 3.0 0.00 0.00 0.00 66 1020.2
20260904040219 64 239 1.0 3.0 0.00 0.00 0.00 65 1020.2
20260904035711 64 257 2.0 3.0 0.00 0.00 0.00 65 1020.2
20260904035208 64 250 1.0 3.0 0.00 0.00 0.00 65 1020.1
20260904034710 64 239 1.0 3.0 0.00 0.00 0.00 65 1020.2
20260904034219 64 253 0.0 3.0 0.00 0.00 0.00 65 1020.3
20260904033716 64 244 1.0 4.0 0.00 0.00 0.00 65 1020.3
20260904033216 65 248 1.0 4.0 0.00 0.00 0.00 65 1020.3
20260904032711 65 0 0.0 4.0 0.00 0.00 0.00 64 1020.3
20260904032213 65 257 1.0 4.0 0.00 0.00 0.00 64 1020.4
20260904031716 65 225 2.0 4.0 0.00 0.00 0.00 64 1020.4
20260904031215 65 253 2.0 4.0 0.00 0.00 0.00 64 1020.5
20260904030712 65 236 2.0 4.0 0.00 0.00 0.00 64 1020.5
20260904030216 65 241 2.0 2.0 0.00 0.00 0.00 64 1020.4
20260904025208 65 0 0.0 2.0 0.00 0.00 0.00 64 1020.6
20260904024707 65 250 0.0 2.0 0.00 0.00 0.00 64 1020.6
20260904024229 65 236 0.0 0.0 0.00 0.00 0.00 64 1020.7
20260904023708 65 0 0.0 2.0 0.00 0.00 0.00 64 1020.7
20260904023206 65 0 0.0 4.0 0.00 0.00 0.00 64 1020.7
20260904022710 65 0 0.0 4.0 0.00 0.00 0.00 63 1020.7
20260904022210 66 232 0.0 4.0 0.00 0.00 0.00 63 1020.8
20260904021710 66 227 2.0 4.0 0.00 0.00 0.00 63 1020.8
20260904021207 65 220 2.0 4.0 0.00 0.00 0.00 63 1020.8
20260904020216 65 0 0.0 0.0 0.00 0.00 0.00 63 1021.0
20260904015709 65 0 0.0 0.0 0.00 0.00 0.00 63 1020.9
20260904015216 66 0 0.0 2.0 0.00 0.00 0.00 63 1020.9
20260904014718 66 0 0.0 2.0 0.00 0.00 0.00 62 1020.9
20260904013710 66 203 0.0 4.0 0.00 0.00 0.00 62 1021.0
20260904013215 66 0 0.0 4.0 0.00 0.00 0.00 62 1021.1
20260904012711 66 212 1.0 1.0 0.00 0.00 0.00 61 1021.2
20260904011219 67 208 0.0 2.0 0.00 0.00 0.00 60 1021.2
20260904010718 67 0 0.0 3.0 0.00 0.00 0.00 60 1021.4
20260904010210 67 0 0.0 3.0 0.00 0.00 0.00 59 1021.5
20260904005716 67 234 0.0 3.0 0.00 0.00 0.00 59 1021.4
20260904005207 67 246 2.0 3.0 0.00 0.00 0.00 59 1021.5
20260904004715 67 233 1.0 2.0 0.00 0.00 0.00 59 1021.5
20260904004213 67 253 0.0 2.0 0.00 0.00 0.00 59 1021.5
20260904003212 68 255 0.0 4.0 0.00 0.00 0.00 59 1021.7
20260904002715 68 236 0.0 4.0 0.00 0.00 0.00 59 1021.7
20260904002210 68 248 1.0 4.0 0.00 0.00 0.00 59 1021.8
20260904001718 68 240 2.0 4.0 0.00 0.00 0.00 58 1021.9
20260904001208 68 253 1.0 4.0 0.00 0.00 0.00 58 1021.9
20260904000716 68 234 1.0 2.0 0.00 0.00 0.00 58 1021.9
20260904000218 68 0 0.0 3.0 0.00 0.00 0.00 58 1022.0
20260903235719 68 0 0.0 3.0 0.00 0.00 0.00 58 1021.9
20260903235208 68 241 0.0 3.0 0.00 0.00 0.00 58 1021.9
20260903234713 69 243 1.0 2.0 0.00 0.00 0.00 57 1022.0
20260903233713 69 0 0.0 3.0 0.00 0.00 0.00 57 1022.0
20260903233209 69 0 0.0 3.0 0.00 0.00 0.00 57 1022.0
20260903232710 69 0 0.0 3.0 0.00 0.00 0.00 57 1022.0
20260903231717 69 233 0.0 4.0 0.00 0.00 0.00 58 1022.2
20260903231213 69 227 0.0 4.0 0.00 0.00 0.00 58 1022.1
20260903230708 69 217 0.0 2.0 0.00 0.00 0.00 57 1022.1
20260903230210 69 225 0.0 5.0 0.00 0.00 0.00 57 1022.1
20260903225707 69 239 1.0 5.0 0.00 0.00 0.00 56 1022.1
20260903225208 70 241 0.0 5.0 0.00 0.00 0.00 56 1022.2
20260903224712 70 219 1.0 0.0 0.00 0.00 0.00 56 1022.2
20260903224218 69 0 0.0 0.0 0.00 0.00 0.00 56 1022.2
20260903223717 69 0 0.0 0.0 0.00 0.00 0.00 57 1022.2
20260903223219 69 0 0.0 0.0 0.00 0.00 0.00 57 1022.2
20260903222709 69 0 0.0 0.0 0.00 0.00 0.00 57 1022.3
20260903222213 70 0 0.0 0.0 0.00 0.00 0.00 56 1022.3
20260903221710 70 0 0.0 0.0 0.00 0.00 0.00 56 1022.3
20260903221219 70 0 0.0 0.0 0.00 0.00 0.00 56 1022.3
20260903220714 71 0 0.0 0.0 0.00 0.00 0.00 55 1022.4
20260903220205 71 0 0.0 0.0 0.00 0.00 0.00 54 1022.4
20260903215212 71 0 0.0 0.0 0.00 0.00 0.00 54 1022.5
20260903214714 71 0 0.0 0.0 0.00 0.00 0.00 55 1022.5
20260903214214 71 0 0.0 0.0 0.00 0.00 0.00 55 1022.4
20260903213709 71 0 0.0 0.0 0.00 0.00 0.00 55 1022.5
20260903213207 71 0 0.0 0.0 0.00 0.00 0.00 55 1022.4
20260903212708 71 0 0.0 0.0 0.00 0.00 0.00 55 1022.4
20260903212215 71 0 0.0 0.0 0.00 0.00 0.00 55 1022.5
20260903211709 71 0 0.0 0.0 0.00 0.00 0.00 55 1022.4
20260903211211 71 0 0.0 0.0 0.00 0.00 0.00 55 1022.5
20260903210709 71 0 0.0 0.0 0.00 0.00 0.00 55 1022.5
20260903205711 71 0 0.0 0.0 0.00 0.00 0.00 55 1022.4
20260903205215 71 0 0.0 0.0 0.00 0.00 0.00 54 1022.5
20260903204711 72 0 0.0 0.0 0.00 0.00 0.00 53 1022.5
20260903204218 72 0 0.0 0.0 0.00 0.00 0.00 53 1022.5
20260903203206 73 0 0.0 0.0 0.00 0.00 0.00 52 1022.4
20260903202716 74 0 0.0 0.0 0.00 0.00 0.00 51 1022.3
20260903202217 74 0 0.0 0.0 0.00 0.00 0.00 50 1022.4
20260903201714 75 0 0.0 0.0 0.00 0.00 0.00 49 1022.3
20260903201209 75 0 0.0 0.0 0.00 0.00 0.00 48 1022.3
20260903200219 76 0 0.0 0.0 0.00 0.00 0.00 46 1022.1
20260903195712 77 0 0.0 0.0 0.00 0.00 0.00 46 1022.1
20260903195211 77 0 0.0 1.0 0.00 0.00 0.00 45 1022.1
20260903194708 78 0 0.0 1.0 0.00 0.00 0.00 45 1022.2
20260903194207 78 0 0.0 2.0 0.00 0.00 0.00 44 1022.1
20260903193217 80 0 0.0 2.0 0.00 0.00 0.00 42 1021.9
20260903192708 82 303 0.0 0.0 0.00 0.00 0.00 40 1021.7
20260903191712 83 0 0.0 3.0 0.00 0.00 0.00 37 1021.7
20260903191209 83 0 0.0 3.0 0.00 0.00 0.00 36 1021.6
20260903190708 83 0 0.0 3.0 0.00 0.00 0.00 36 1021.5
20260903190211 83 284 1.0 3.0 0.00 0.00 0.00 36 1021.6
20260903185706 84 250 0.0 5.0 0.00 0.00 0.00 36 1021.5
20260903185209 84 251 0.0 5.0 0.00 0.00 0.00 36 1021.6
20260903184208 84 302 1.0 8.0 0.00 0.00 0.00 35 1021.6
20260903183718 85 285 1.0 8.0 0.00 0.00 0.00 35 1021.5
20260903183211 85 281 2.0 8.0 0.00 0.00 0.00 35 1021.5
20260903182719 85 255 2.0 8.0 0.00 0.00 0.00 35 1021.5
20260903182218 85 254 2.0 6.0 0.00 0.00 0.00 35 1021.5
20260903181704 86 262 1.0 6.0 0.00 0.00 0.00 34 1021.5
20260903181219 86 275 0.0 6.0 0.00 0.00 0.00 34 1021.4
20260903180706 86 286 1.0 9.0 0.00 0.00 0.00 34 1021.4
20260903180215 87 313 0.0 9.0 0.00 0.00 0.00 34 1021.5
20260903175715 87 0 0.0 9.0 0.00 0.00 0.00 33 1021.6
20260903174712 88 268 1.0 11.0 0.00 0.00 0.00 32 1021.6
20260903174207 88 279 2.0 11.0 0.00 0.00 0.00 32 1021.6
20260903173718 89 289 4.0 9.0 0.00 0.00 0.00 31 1021.6
20260903173207 89 271 1.0 9.0 0.00 0.00 0.00 31 1021.5
20260903172707 89 268 2.0 9.0 0.00 0.00 0.00 31 1021.6
20260903172214 90 246 5.0 10.0 0.00 0.00 0.00 31 1021.6
20260903171214 89 257 1.0 12.0 0.00 0.00 0.00 32 1021.6
20260903170705 89 275 3.0 12.0 0.00 0.00 0.00 31 1021.6
20260903170214 89 260 6.0 13.0 0.00 0.00 0.00 31 1021.7
20260903165712 89 277 4.0 13.0 0.00 0.00 0.00 31 1021.7
20260903165206 89 258 3.0 15.0 0.00 0.00 0.00 31 1021.7
20260903164717 90 279 5.0 15.0 0.00 0.00 0.00 30 1021.6
20260903164214 90 278 4.0 15.0 0.00 0.00 0.00 30 1021.7
20260903163705 90 260 4.0 11.0 0.00 0.00 0.00 30 1021.7
20260903163209 90 264 4.0 10.0 0.00 0.00 0.00 30 1021.7
20260903162710 90 288 4.0 12.0 0.00 0.00 0.00 30 1021.7
20260903161711 90 289 4.0 13.0 0.00 0.00 0.00 30 1021.6
20260903161214 91 261 6.0 17.0 0.00 0.00 0.00 30 1021.7
20260903160705 91 260 6.0 17.0 0.00 0.00 0.00 30 1021.7
20260903160204 91 261 4.0 17.0 0.00 0.00 0.00 30 1021.7
20260903155706 91 284 5.0 16.0 0.00 0.00 0.00 30 1021.7
20260903155218 91 309 3.0 16.0 0.00 0.00 0.00 30 1021.7
20260903154718 91 277 5.0 16.0 0.00 0.00 0.00 30 1021.7
20260903154206 91 285 6.0 12.0 0.00 0.00 0.00 30 1021.7
20260903153715 90 320 4.0 13.0 0.00 0.00 0.00 30 1021.8
20260903153219 90 279 5.0 13.0 0.00 0.00 0.00 30 1021.8
20260903152715 90 278 5.0 15.0 0.00 0.00 0.00 29 1021.9
20260903152219 90 313 4.0 15.0 0.00 0.00 0.00 30 1021.8
20260903151717 89 330 1.0 15.0 0.00 0.00 0.00 30 1021.8
20260903151219 89 331 6.0 13.0 0.00 0.00 0.00 31 1021.8
20260903150713 89 347 7.0 13.0 0.00 0.00 0.00 32 1021.9
20260903145707 90 306 4.0 11.0 0.00 0.00 0.00 30 1021.9
20260903145213 90 357 1.0 11.0 0.00 0.00 0.00 30 1021.9
20260903144717 90 288 3.0 12.0 0.00 0.00 0.00 30 1021.9
20260903144207 90 277 1.0 12.0 0.00 0.00 0.00 30 1022.0
20260903143716 90 348 4.0 15.0 0.00 0.00 0.00 29 1022.0
20260903143216 89 310 5.0 16.0 0.00 0.00 0.00 30 1022.1
20260903142715 89 336 3.0 16.0 0.00 0.00 0.00 29 1022.1
20260903142207 89 341 5.0 16.0 0.00 0.00 0.00 29 1022.0
20260903141710 89 268 5.0 14.0 0.00 0.00 0.00 30 1022.1
20260903140220 88 246 3.0 14.0 0.00 0.00 0.00 30 1022.3
20260903135219 88 2 5.0 14.0 0.00 0.00 0.00 32 1022.4
20260903134209 88 260 7.0 16.0 0.00 0.00 0.00 31 1022.5
20260903133706 88 15 3.0 16.0 0.00 0.00 0.00 32 1022.5
20260903132706 87 334 4.0 15.0 0.00 0.00 0.00 34 1022.5
20260903132210 87 281 7.0 11.0 0.00 0.00 0.00 35 1022.7
20260903131718 88 355 4.0 13.0 0.00 0.00 0.00 34 1022.6
20260903131234 88 345 2.0 14.0 0.00 0.00 0.00 34 1022.7
20260903130716 87 330 4.0 14.0 0.00 0.00 0.00 36 1022.7
20260903125713 87 277 6.0 13.0 0.00 0.00 0.00 37 1022.7
20260903125210 87 275 3.0 12.0 0.00 0.00 0.00 37 1022.8
20260903124714 87 355 5.0 15.0 0.00 0.00 0.00 38 1022.8
20260903123713 86 42 3.0 15.0 0.00 0.00 0.00 39 1022.9
20260903123209 86 296 7.0 10.0 0.00 0.00 0.00 39 1022.8
20260903122213 85 307 2.0 11.0 0.00 0.00 0.00 41 1022.9
20260903121713 85 277 4.0 11.0 0.00 0.00 0.00 41 1023.0
20260903120717 85 309 4.0 13.0 0.00 0.00 0.00 41 1023.1
20260903120213 86 268 2.0 13.0 0.00 0.00 0.00 41 1023.1
20260903115714 85 277 4.0 11.0 0.00 0.00 0.00 41 1023.2
20260903115214 85 306 3.0 11.0 0.00 0.00 0.00 43 1023.1
20260903114705 85 264 5.0 11.0 0.00 0.00 0.00 43 1023.2
20260903114217 85 307 3.0 13.0 0.00 0.00 0.00 43 1023.2
20260903113711 84 302 3.0 13.0 0.00 0.00 0.00 42 1023.2
20260903113211 84 279 3.0 15.0 0.00 0.00 0.00 42 1023.3
20260903112706 84 309 5.0 15.0 0.00 0.00 0.00 42 1023.4
20260903112207 84 281 6.0 15.0 0.00 0.00 0.00 43 1023.4
20260903111711 84 272 4.0 11.0 0.00 0.00 0.00 44 1023.5
20260903110714 83 278 4.0 12.0 0.00 0.00 0.00 44 1023.6
20260903110207 83 291 3.0 12.0 0.00 0.00 0.00 45 1023.7